{"data":{"norad_id":64440,"epoch":"2026-05-25T03:41:28.199040Z","epoch_age_seconds":58777,"freshness":"FRESH","line1":"1 64440U 25130C   26145.15379860  .00016056  00000+0  55284-3 0  9990","line2":"2 64440  53.1577  93.1155 0001132  87.1259 272.9871 15.30211480 52414","mean_motion":15.3021148,"eccentricity":0.0001132,"inclination_deg":53.1577,"raan_deg":93.1155,"arg_perigee_deg":87.1259,"mean_anomaly_deg":272.9871,"bstar":0.00055284,"rev_number":5241,"period_min":94.104639706402,"perigee_km":474.4049968488,"apogee_km":475.95658799701,"semimajor_km":6853.3177924229,"source":"CELESTRAK","updated_at":"2026-05-25T13:38:20.446564Z"}}